User: anonymous   Login
Location: Berua Church
(35.0423°N, 88.5987°W)
Time: 01:09:23
(UTC+00:00)
Language:

SKYMED 3 - Orbit

View from above orbital plane
View from above orbital plane
View from above satellite
View from above satellite

Ground track
Ground track

The orbit data is extracted from the following two-line orbital elements,

1 33412U 08054A   20047.77324409  .00000222  00000-0  34490-4 0  9999
2 33412  97.8857 232.6917 0001274  92.1669 267.9707 14.82150542612016
Epoch (UTC): 16 February 2020 18:33:28
Eccentricity: 0.0001274
inclination: 97.8857°
perigee height: 621 km
apogee height: 623 km
right ascension of ascending node: 232.6917°
argument of perigee: 92.1669°
revolutions per day: 14.82150542
mean anomaly at epoch: 267.9707°
orbit number at epoch: 61201

The dashed part of the orbit path shows where the satellite is in the earth's shadow,  

DLR